Location: Allison Elementary School
(34.0784°N, 117.7317°W)
Time: 11:12:37
(UTC+00:00)

Cosmos 1980 Rocket - Pass Details

Date: 15 November 2019
Orbit: 828 x 851 km, 71.0° (Epoch: 15 December)

Event Time Altitude Azimuth Distance (km) Brightness Sun altitude
Rises 01:32:43 0° 168° (SSE) 3,371 5.4 -9.6°
Reaches altitude 10° 01:35:32 10° 155° (SSE) 2,445 4.5 -10.2°
Maximum altitude 01:40:02 25° 101° (ESE) 1,632 3.2 -11.1°
Enters shadow 01:43:45 13° 54° (NE) 2,236 3.8 -11.8°
